RH
45 58 60 49 48 48 52 56 57 50 37 41 39 35 30 28 29 33 33 29 72 71 66 67 67 69 68 68 69 72 73 74 73 77 85 89 86 84 82 89 82 88 84 83
54 64 48 42 43 46 48 51 52 46 39 40 40 39 38 36 33 34 33 36 71 68 68 65 68 70 72 71 70 71 72 73 72 76 83 84 87 90 83 80 79 84 80 83
58 47 39 42 45 47 48 53 51 49 40 41 45 45 40 33 33 39 57 48 63 68 70 65 66 71 74 75 74 72 70 69 72 74 74 76 81 79 82 76 76 75 75 80
52 37 38 42 46 44 54 41 42 50 59 68 46 66 42 39 61 69 69 73 76 75 72 72 76 76 74 74 67 68 68 69 66 72 78 86 90 89 85 82 77 75 74 78
62 56 60 57 49 47 56 48 50 51 63 61 54 71 53 73 81 75 70 68 71 75 75 77 79 75 73 72 71 69 71 70 71 74 77 82 87 85 82 80 81 80 79 78
56 49 49 50 42 45 44 53 57 60 55 86 57 56 69 85 79 72 70 64 62 64 64 65 62 64 73 73 72 67 72 71 72 77 79 84 89 89 88 85 85 82 79 79
63 60 53 46 58 52 55 64 88 94 82 76 54 61 78 87 83 82 86 86 79 77 74 72 72 72 68 72 74 67 75 80 77 81 84 84 86 88 87 84 84 84 80 77
64 66 46 43 50 57 67 68 93 90 83 74 58 67 83 82 78 79 78 83 85 90 90 90 89 88 85 79 74 76 79 84 82 79 79 76 74 77 78 77 77 79 81 79
67 60 45 42 46 47 60 80 70 81 79 88 73 84 86 86 87 88 90 86 88 91 90 89 88 88 90 85 86 90 86 82 79 79 76 74 74 73 76 76 76 78 77 76
51 62 56 52 38 41 51 52 74 92 96 93 76 73 90 95 87 82 88 88 87 85 82 81 77 76 76 78 77 80 82 82 80 80 74 72 73 72 76 78 79 80 79 79
49 57 66 59 57 54 48 56 62 79 88 94 90 73 79 82 79 82 82 84 84 74 74 73 72 72 71 73 82 78 77 80 81 84 83 74 78 76 78 79 83 83 83 82
61 72 86 65 56 46 47 52 59 82 77 84 84 66 57 80 81 72 79 72 77 79 82 83 80 78 74 80 76 78 79 85 87 80 85 84 83 83 82 84 84 85 85 83
70 86 93 73 66 63 66 58 53 66 76 71 84 75 81 84 81 69 76 75 78 81 85 86 81 76 79 79 80 80 83 86 83 82 83 86 84 87 89 87 86 85 86 84
68 77 68 66 62 65 72 62 52 64 94 80 76 71 63 84 77 72 75 81 83 82 77 73 76 80 77 82 81 81 84 85 84 82 85 86 88 89 90 87 88 88 87 86
73 79 78 69 58 64 76 71 69 70 78 93 72 70 90 86 80 84 79 74 78 79 76 76 78 81 82 83 84 85 90 91 87 90 91 94 92 90 90 92 93 92 91 90
66 84 67 64 52 49 68 75 72 68 67 61 61 88 84 81 79 79 78 80 84 79 78 79 81 87 90 87 84 87 90 89 92 92 95 94 94 94 95 96 96 93 90 92
72 87 93 94 59 47 59 62 63 56 67 68 74 74 86 90 88 89 89 80 80 83 82 87 91 94 96 92 97 97 94 90 90 91 91 91 93 94 94 94 92 94 95 93
79 84 97 92 60 82 72 68 73 77 86 91 93 93 90 88 90 90 91 86 86 87 87 91 95 96 96 97 98 97 97 89 88 91 91 90 89 89 88 91 94 94 96 96
72 91 96 89 83 66 75 80 85 81 75 86 96 95 83 86 84 94 86 85 96 97 98 98 98 99 97 96 94 92 93 89 88 91 92 92 87 88 88 90 92 91 93 94
69 66 82 87 84 92 75 82 72 70 86 86 90 95 91 90 98 99 94 94 98 98 98 98 97 95 93 94 89 92 94 93 94 92 92 90 88 90 92 91 90 90 91 92
94 81 82 88 86 78 74 83 76 86 79 87 86 89 90 95 96 94 95 98 96 97 97 97 97 97 96 92 89 93 94 97 97 91 89 89 89 89 91 91 90 90 90 90
76 80 94 89 88 82 82 86 84 88 98 93 98 98 93 96 98 97 94 96 97 97 97 95 94 95 95 94 93 95 95 94 93 96 90 91 92 91 89 90 90 90 87 89
74 79 83 77 82 95 94 94 95 92 94 92 96 98 91 95 96 96 97 97 97 97 96 93 88 90 88 88 88 96 96 90 90 88 93 97 92 93 85 88 93 89 88 87
92 80 94 87 95 96 96 94 93 93 95 99 96 96 91 95 96 97 97 97 96 96 96 94 89 85 86 83 80 82 82 81 83 85 87 87 86 90 87 78 82 87 89 89
91 82 86 93 92 89 92 86 89 95 90 92 96 94 95 93 96 95 96 96 96 95 93 78 80 81 84 80 82 83 78 77 69 74 76 79 81 83 85 85 78 81 83 78
96 94 92 94 86 86 90 92 93 93 94 94 95 98 96 91 95 94 96 96 95 92 78 79 80 83 85 82 85 85 82 77 82 77 80 86 83 87 87 83 83 69 68 66
Wind_Speed
4 5 7 15 9 4 2 3 5 6 11 8 15 20 14 8 7 10 8 7 8 11 10 13 12 12 12 13 14 13 12 12 9 5 4 4 4 3 3 4 6 6 7 9
2 5 12 7 6 6 7 10 10 7 11 7 12 17 10 4 7 6 9 5 11 10 10 11 12 14 16 14 14 14 12 12 10 6 4 2 2 3 2 4 5 6 7 8
7 6 7 8 6 8 10 8 12 11 6 6 7 13 10 8 8 8 13 5 9 12 13 13 15 14 13 15 14 13 12 10 9 8 4 3 2 2 3 5 3 5 5 4
6 11 12 8 6 7 9 9 11 9 4 10 5 14 17 8 14 15 15 15 14 15 15 13 13 14 14 12 12 13 13 13 11 11 8 9 4 3 3 6 7 6 6 5
8 3 3 6 14 8 8 8 11 13 4 5 5 3 6 8 9 10 12 14 14 12 12 11 10 9 10 10 11 10 11 12 13 13 12 8 7 4 5 6 9 9 6 5
8 3 4 7 10 10 6 4 0 3 2 6 12 9 5 3 1 8 11 14 15 12 12 12 11 10 8 9 10 11 13 13 14 13 12 10 9 10 8 8 8 7 7 8
2 11 7 8 6 5 5 3 3 3 1 6 2 1 1 6 8 8 9 8 11 9 7 9 11 12 12 12 12 14 14 14 14 13 10 11 12 10 10 11 9 11 9 9
4 7 6 4 9 8 7 8 6 5 4 5 4 7 4 10 11 11 9 10 8 6 6 9 10 10 13 15 13 12 12 11 12 14 17 14 14 9 8 9 10 10 9 9
6 6 1 3 4 8 3 3 3 2 1 1 5 1 4 9 9 9 8 6 7 8 4 3 6 8 9 10 12 13 13 14 12 13 12 13 13 13 11 12 10 8 11 10
5 4 2 2 2 2 6 8 4 3 3 6 5 5 5 16 14 14 8 7 5 6 5 3 4 8 7 6 7 8 9 9 10 11 11 12 13 13 11 11 11 12 11 12
5 6 2 2 5 9 3 3 3 5 4 4 3 6 6 16 17 15 12 8 7 7 5 5 7 5 4 5 6 9 9 10 11 12 12 12 11 13 12 11 11 11 12 12
0 4 3 7 4 3 3 7 7 5 6 5 3 7 4 7 14 16 13 10 8 7 5 5 6 8 8 9 11 10 11 11 12 13 12 11 12 13 12 11 12 12 12 12
7 2 1 4 3 2 4 4 4 2 3 9 6 5 1 8 11 12 12 10 8 7 5 4 3 8 9 11 11 11 11 11 12 12 11 12 13 13 13 13 14 14 14 14
4 4 7 8 4 4 4 4 2 5 3 5 8 5 0 10 13 11 11 10 8 6 5 5 7 8 9 10 9 10 10 11 11 12 13 12 13 14 15 15 15 15 15 16
5 6 4 3 2 3 3 4 6 7 9 8 6 12 1 3 10 11 11 10 9 6 5 5 6 7 8 8 9 9 10 11 11 8 8 12 13 13 13 14 15 15 15 15
2 3 2 3 2 3 10 8 8 10 11 12 4 3 5 6 11 10 8 8 6 5 5 5 7 7 6 6 7 7 6 8 7 8 12 11 12 14 15 15 14 15 16 16
5 5 3 4 5 2 7 12 16 11 1 1 6 5 12 7 9 7 6 5 6 6 5 4 4 3 3 3 5 4 4 5 8 10 11 11 12 13 14 15 16 18 18 17
6 7 3 2 3 6 1 3 2 3 2 1 4 7 6 8 7 6 4 6 7 7 6 4 1 1 4 4 4 4 4 8 10 12 11 13 13 13 15 16 16 16 15 17
5 6 3 4 5 4 2 2 3 4 4 3 7 7 9 9 7 2 5 5 5 5 3 2 3 4 4 4 5 5 7 11 12 11 13 12 12 13 15 16 15 13 14 14
5 6 4 3 4 7 6 3 2 3 6 5 5 10 13 10 3 3 8 7 6 4 2 3 4 4 7 7 7 8 9 9 11 12 11 10 11 13 13 12 13 12 12 12
5 3 8 2 3 6 4 4 1 5 8 3 4 4 11 6 3 8 11 5 4 4 6 4 6 6 6 7 7 8 7 8 6 9 8 11 12 12 11 10 10 12 12 12
8 7 4 3 2 8 6 3 6 4 2 3 2 2 4 8 11 13 11 10 9 7 6 6 6 6 6 7 6 7 8 5 5 3 9 10 10 9 9 11 10 11 13 12
2 7 7 6 6 1 2 3 1 2 4 3 4 0 9 12 11 10 10 9 7 8 6 6 6 6 7 7 6 6 5 5 6 8 7 6 8 8 9 10 11 10 11 12
1 2 4 4 2 4 4 4 4 4 3 3 5 6 7 11 9 10 9 8 8 7 6 6 6 7 7 7 8 6 7 7 9 9 8 6 7 8 10 9 9 10 11 11
3 5 7 3 3 4 4 4 7 5 8 9 6 6 9 11 9 9 9 8 7 6 6 7 6 7 7 6 7 7 9 8 9 8 7 8 7 9 8 9 10 10 12 14
1 5 5 5 9 4 6 7 10 9 8 8 11 8 6 9 9 10 9 7 6 7 7 7 7 7 5 6 6 8 9 9 7 7 6 6 6 6 7 7 7 19 21 24
Wind_Direction
171 155 197 219 206 212 330 264 253 267 278 286 277 283 294 286 306 322 299 315 83 76 61 54 35 27 30 44 49 46 35 21 27 9 359 9 13 347 40 49 21 31 8 354
33 232 227 213 227 229 260 273 275 268 259 255 285 287 286 253 268 268 290 327 126 117 87 77 61 45 34 33 36 29 27 22 16 15 3 347 298 299 351 40 7 31 15 349
177 224 219 205 242 252 249 255 271 267 267 239 271 290 304 310 280 8 6 22 83 71 75 58 46 47 47 33 25 27 16 8 8 0 350 313 311 9 20 3 351 355 342 336
235 234 238 215 222 223 255 247 264 293 323 290 102 300 301 352 39 44 38 48 56 59 55 48 41 39 34 29 32 18 15 2 4 2 9 27 20 346 347 322 314 328 327 317
233 243 217 216 239 222 248 241 274 292 269 308 178 221 253 40 49 54 61 62 58 63 66 54 43 40 34 24 21 22 14 0 357 357 5 2 347 320 323 322 316 321 325 323
228 242 199 220 257 235 246 289 82 23 81 276 288 180 279 12 144 92 63 62 60 40 49 47 35 29 21 21 18 16 13 3 353 351 355 341 336 337 338 327 321 324 322 322
210 242 245 203 234 269 177 141 273 311 81 237 240 237 213 133 102 110 93 69 62 39 35 44 27 16 8 7 13 12 4 0 349 342 329 342 337 332 324 326 322 321 317 317
174 316 190 178 180 194 189 168 173 234 217 262 321 253 240 145 141 139 144 130 109 78 42 29 11 18 8 6 6 7 356 345 338 344 351 343 336 328 319 322 321 309 306 303
184 243 217 199 159 142 184 163 195 115 290 267 224 185 221 169 176 186 171 163 156 147 113 60 14 28 15 355 347 354 353 345 339 349 340 336 331 331 322 319 312 303 300 299
242 286 220 213 95 8 157 163 80 7 246 240 241 235 230 192 200 198 199 201 172 138 124 94 36 32 12 345 333 350 338 331 339 337 340 340 334 333 328 323 321 316 309 307
176 184 205 96 207 181 145 189 86 137 169 214 287 254 203 196 197 193 194 181 159 120 101 52 35 23 1 357 351 353 333 348 351 348 338 340 338 345 344 339 331 325 319 318
148 139 179 226 296 245 180 190 156 157 223 238 184 259 247 193 165 178 185 143 117 95 67 43 18 6 5 5 1 349 352 356 357 347 344 343 347 351 348 344 342 339 337 331
194 232 75 312 340 326 226 202 194 139 125 216 231 260 207 104 150 164 138 120 107 101 78 44 4 21 13 6 0 348 351 353 352 349 349 357 358 357 352 357 357 353 349 347
101 178 191 214 195 143 181 190 203 178 185 259 236 284 297 154 155 135 119 103 101 95 74 42 29 21 12 5 355 346 354 358 350 1 5 5 5 4 1 1 1 1 2 358
159 227 204 232 206 171 184 198 216 236 204 240 266 249 182 183 147 128 121 125 117 94 71 54 39 24 10 2 352 351 356 353 351 342 356 14 9 3 5 2 5 4 4 0
167 235 52 318 278 251 258 230 254 256 253 255 221 192 128 95 111 114 116 119 114 108 82 57 36 19 3 1 8 360 342 343 328 360 17 11 11 9 8 8 4 4 5 4
153 121 116 257 232 256 266 205 230 238 190 218 198 199 151 148 128 124 114 132 138 113 99 71 37 344 355 1 323 328 333 333 11 23 17 13 19 16 8 8 11 9 5 1
164 129 167 200 140 234 7 41 349 147 96 19 87 126 130 137 101 112 129 138 121 114 98 73 89 200 285 285 293 303 327 23 28 30 18 20 21 18 15 11 9 6 5 5
208 150 173 178 203 328 318 239 175 139 253 197 146 124 130 124 117 118 118 107 114 108 107 174 247 250 295 325 342 18 32 30 33 30 25 20 22 25 21 14 2 0 5 5
157 187 152 149 172 215 238 148 124 119 286 174 150 160 160 153 204 212 142 125 122 126 130 59 7 5 25 10 18 37 37 38 31 30 24 21 27 31 22 11 3 1 1 3
162 163 190 134 210 283 175 159 155 99 242 145 125 147 171 197 207 140 131 120 130 130 113 85 54 40 20 17 30 41 36 34 28 32 29 32 30 30 16 4 9 11 8 6
164 152 172 98 115 264 144 94 175 191 39 117 80 250 209 130 129 135 139 151 162 152 118 92 72 48 23 23 29 39 36 4 19 40 37 34 25 24 20 16 13 18 20 17
208 170 174 173 208 229 77 135 122 120 135 167 133 138 136 137 134 130 131 131 116 108 97 87 79 65 38 27 24 31 351 22 31 39 35 28 24 27 31 30 20 25 27 25
22 130 101 128 170 167 138 97 75 52 104 112 115 113 116 119 119 117 114 115 112 107 99 95 85 67 50 33 33 22 31 32 40 40 32 33 44 43 37 37 32 29 30 32
195 127 134 89 135 129 193 141 119 110 117 117 89 109 122 119 115 118 113 111 108 99 102 97 90 75 53 33 31 24 31 34 50 42 34 36 36 42 42 37 36 35 30 39
185 155 168 211 171 143 153 145 130 144 144 142 127 113 108 118 119 114 108 105 107 112 111 102 90 76 46 40 31 29 33 40 38 44 37 30 38 35 44 35 36 37 44 43